User: anonymous   Login
Location: Bannatyne
(13.0833°N, 59.5333°W)
Time: 14:15:06
(UTC+00:00)
Language:

Vanguard 2 Rocket - Orbit

View from above orbital plane
View from above orbital plane
View from above satellite
View from above satellite

Ground track
Ground track

The orbit data is extracted from the following two-line orbital elements,

1    12U 59001B   20022.59491149 -.00000083 +00000-0 -45710-4 0  9990
2    12 032.8978 144.7545 1666373 023.8529 343.1033 11.44311591263157
Epoch (UTC): 22 January 2020 14:16:40
Eccentricity: 0.1666373
inclination: 32.8978°
perigee height: 554 km
apogee height: 3326 km
right ascension of ascending node: 144.7545°
argument of perigee: 23.8529°
revolutions per day: 11.44311591
mean anomaly at epoch: 343.1033°
orbit number at epoch: 26315

The dashed part of the orbit path shows where the satellite is in the earth's shadow,  

DLR